Tracking 19559 objects as of 26-Mar-2019
HD Live streaming from Space Station
objects crossing your sky now

GALAXY 9

Track GALAXY 9 now!
GALAXY 9 is classified as:


NORAD ID: 23877
Int'l Code: 1996-033A
Perigee: 35,986.6 km
Apogee: 36,016.5 km
Inclination: 7.9 °
Period: 1,446.7 minutes
Semi major axis: 42372 km
RCS: 8.797 m2 (large)
Launch date: May 24, 1996
Source: United States (US)
Launch site: AIR FORCE EASTERN TEST RANGE (AFETR)

Voice and vision communication; 24 C-band; North America, Caribbean.
aabbcc
Your satellite tracking list
Your tracking list is empty




NASA's NSSDC Master Catalog

Two Line Element Set (TLE):
1 23877U 96033A   19084.90663747 -.00000050 +00000-0 +00000-0 0  9998
2 23877 007.8846 049.0491 0003519 083.5785 100.4790 00.99535088020070
Source of the keplerian elements: AFSPC